DL3NBY Weather Reports


Display with metric or nautical units.
time (UTC)temp
F
wind
direction
speed
MPH
gust
MPH
rain 1hr
in
rain 24hr
in
rain mn
in
humidity
%
barometer
mb
20260507003107 53 217 1.0 7.0 0.01 0.02 0.01 98 1006.7
20260507002104 53 113 2.0 6.0 0.01 0.05 0.01 98 1006.7
20260507001100 53 90 1.0 4.0 0.01 0.05 0.01 99 1006.8
20260507000057 53 270 0.0 3.0 0.01 0.05 0.01 98 1006.7
20260506235054 54 195 1.0 7.0 0.00 0.04 0.00 98 1006.7
20260506234051 54 240 0.0 3.0 0.00 0.04 0.00 98 1006.7
20260506233108 54 216 2.0 7.0 0.00 0.04 0.00 97 1006.6
20260506232044 54 185 3.0 6.0 0.00 0.04 0.00 97 1006.6
20260506231041 54 181 3.0 8.0 0.00 0.04 0.00 97 1006.5
20260506230058 54 254 2.0 5.0 0.00 0.04 0.00 97 1006.4
20260506225055 54 200 1.0 6.0 0.00 0.04 0.00 97 1006.4
20260506224031 54 199 2.0 9.0 0.00 0.04 0.00 97 1006.3
20260506223028 55 224 3.0 8.0 0.00 0.04 0.00 97 1006.3
20260506221022 55 189 2.0 5.0 0.00 0.04 0.00 95 1006.1
20260506220019 56 225 0.0 3.0 0.00 0.04 0.00 94 1006.1
20260506215016 56 214 2.0 8.0 0.00 0.04 0.04 93 1006.0
20260506213109 56 245 1.0 4.0 0.00 0.04 0.04 92 1006.0
20260506212106 56 225 0.0 4.0 0.00 0.04 0.04 92 1005.9
20260506211102 56 212 1.0 3.0 0.00 0.04 0.04 92 1005.8
20260506210100 56 225 0.0 3.0 0.00 0.04 0.04 92 1005.7
20260506205056 56 180 1.0 3.0 0.00 0.04 0.04 92 1005.6
20260506203052 57 180 0.0 2.0 0.00 0.04 0.04 91 1005.6
20260506202047 57 180 0.0 3.0 0.00 0.04 0.04 90 1005.4
20260506201044 57 204 1.0 4.0 0.00 0.04 0.04 89 1005.4
20260506200040 58 206 1.0 4.0 0.00 0.04 0.04 88 1005.4
20260506195037 58 248 1.0 3.0 0.00 0.04 0.04 87 1005.3
20260506194034 58 192 3.0 8.0 0.00 0.04 0.04 86 1005.3
20260506193031 58 206 2.0 7.0 0.00 0.05 0.04 86 1005.2
20260506192028 59 185 1.0 4.0 0.00 0.05 0.04 86 1005.1
20260506191025 59 203 0.0 3.0 0.00 0.05 0.04 86 1005.0
20260506190021 59 207 1.0 4.0 0.00 0.05 0.04 85 1004.8
20260506185019 59 186 2.0 5.0 0.00 0.05 0.04 87 1004.6
20260506184015 59 195 1.0 3.0 0.00 0.05 0.04 87 1004.4
20260506182109 59 190 1.0 2.0 0.00 0.05 0.04 86 1004.1
20260506181106 60 263 1.0 3.0 0.00 0.05 0.04 86 1004.0
20260506174117 61 225 0.0 2.0 0.00 0.06 0.04 83 1003.9
20260506173054 61 198 1.0 4.0 0.00 0.06 0.04 81 1003.7
20260506172050 62 225 2.0 4.0 0.00 0.06 0.04 81 1003.6
20260506171047 62 235 1.0 4.0 0.00 0.07 0.04 81 1003.5
20260506165101 63 197 1.0 2.0 0.00 0.13 0.04 78 1003.4
20260506163034 64 238 0.0 4.0 0.00 0.26 0.04 74 1003.4
20260506162051 64 180 0.0 2.0 0.00 0.47 0.04 75 1003.6
20260506161028 64 264 1.0 4.0 0.00 0.52 0.04 74 1003.7
20260506160025 64 203 1.0 3.0 0.00 0.52 0.04 76 1003.8
20260506155038 64 270 0.0 3.0 0.00 0.52 0.04 76 1003.9
20260506153130 64 0.0 1.0 0.00 0.52 0.04 76 1003.8
20260506152107 64 0.0 2.0 0.00 0.52 0.04 76 1003.8
20260506151103 64 202 2.0 4.0 0.00 0.52 0.04 73 1003.7
20260506150100 64 222 1.0 4.0 0.00 0.52 0.04 76 1003.5
20260506144054 65 234 1.0 3.0 0.00 0.52 0.04 71 1003.8
20260506143050 65 225 0.0 4.0 0.00 0.52 0.04 72 1003.7
20260506142107 66 153 0.0 2.0 0.00 0.52 0.04 71 1003.8
20260506141044 67 198 1.0 4.0 0.00 0.52 0.04 68 1003.8
20260506140041 68 257 0.0 4.0 0.00 0.52 0.04 68 1003.8
20260506135038 68 156 0.0 4.0 0.00 0.52 0.04 64 1004.0
20260506133031 66 81 1.0 5.0 0.00 0.52 0.04 68 1003.9
20260506132028 66 234 1.0 3.0 0.00 0.52 0.04 69 1004.0
20260506131025 65 0.0 2.0 0.00 0.52 0.04 70 1004.1
20260506130022 65 180 2.0 6.0 0.00 0.52 0.04 72 1004.1
20260506125019 66 248 1.0 3.0 0.00 0.52 0.04 70 1004.1
20260506124016 66 207 0.0 2.0 0.00 0.52 0.04 68 1004.2
20260506122109 64 187 1.0 3.0 0.00 0.52 0.04 73 1004.4
20260506121106 64 229 0.0 4.0 0.00 0.52 0.04 74 1004.4
20260506114117 64 211 1.0 4.0 0.00 0.52 0.04 74 1004.5
20260506113054 64 270 1.0 6.0 0.00 0.52 0.04 74 1004.5
20260506112050 65 270 1.0 7.0 0.00 0.52 0.04 73 1004.7
20260506111047 64 225 2.0 6.0 0.00 0.52 0.04 74 1004.7
20260506110044 64 256 1.0 6.0 0.00 0.52 0.04 76 1004.7
20260506105043 64 297 2.0 4.0 0.00 0.52 0.04 75 1004.7
20260506104057 63 180 0.0 3.0 0.00 0.52 0.04 77 1004.8
20260506103034 63 315 0.0 3.0 0.00 0.52 0.04 80 1004.8
20260506101028 62 272 2.0 7.0 0.00 0.52 0.04 80 1004.8
20260506100025 62 241 3.0 9.0 0.00 0.52 0.04 82 1004.9
20260506095025 62 317 1.0 8.0 0.00 0.52 0.04 80 1004.9
20260506092113 61 241 4.0 9.0 0.00 0.52 0.04 84 1005.2
20260506091110 60 191 3.0 6.0 0.00 0.52 0.04 85 1005.0
20260506090107 60 242 0.0 4.0 0.00 0.52 0.04 91 1005.1
20260506085103 59 0.0 2.0 0.00 0.52 0.04 92 1005.1
20260506084100 58 252 2.0 6.0 0.00 0.52 0.04 92 1005.1
20260506083057 57 220 1.0 4.0 0.00 0.52 0.04 95 1004.9
20260506081111 58 270 0.0 4.0 0.00 0.52 0.04 95 1004.8
20260506080107 58 206 2.0 6.0 0.00 0.52 0.04 94 1004.6
20260506073038 57 255 2.0 4.0 0.00 0.52 0.04 96 1004.7
20260506072035 57 219 1.0 4.0 0.00 0.52 0.04 98 1004.6
20260506071032 56 225 1.0 4.0 0.00 0.52 0.04 99 1004.7
20260506062016 54 270 0.0 2.0 0.00 0.52 0.04 99 1004.9
20260506061113 54 0 0.0 2.0 0.00 0.52 0.04 99 1004.8
20260506060110 54 270 0.0 5.0 0.00 0.52 0.04 99 1004.9
20260506051054 53 0.0 1.0 0.00 0.52 0.04 99 1005.0
20260506045048 52 0.0 2.0 0.00 0.52 0.04 99 1005.1
20260506043041 52 217 1.0 3.0 0.01 0.52 0.04 99 1004.9
20260506042038 52 201 1.0 3.0 0.01 0.52 0.04 99 1004.8
20260506041055 51 0.0 2.0 0.01 0.52 0.04 99 1004.9
20260506040111 52 180 0.0 2.0 0.01 0.52 0.04 99 1004.8
20260506035029 52 180 0.0 2.0 0.01 0.52 0.04 99 1004.7
20260506034046 52 180 0.0 3.0 0.00 0.51 0.02 99 1004.8
20260506033022 52 188 1.0 4.0 0.00 0.51 0.02 99 1004.7
20260506032039 52 180 0.0 2.0 0.00 0.51 0.02 99 1004.7
20260506031016 53 180 0.0 2.0 0.00 0.51 0.02 99 1004.7
20260506030113 53 158 0.0 3.0 0.00 0.51 0.02 99 1004.8
20260506023124 53 0.0 0.0 0.00 0.51 0.02 99 1004.8
20260506021057 53 0.0 0.0 0.00 0.52 0.02 99 1004.9
20260506020054 53 0.0 0.0 0.00 0.52 0.02 99 1004.9
20260506015050 53 148 0.0 2.0 0.00 0.52 0.02 99 1004.9
20260506014048 53 0.0 0.0 0.00 0.52 0.02 99 1004.9
20260506013044 53 0.0 1.0 0.00 0.52 0.02 99 1005.0
20260506012041 54 0.0 0.0 0.02 0.52 0.02 99 1005.1
20260506011038 54 180 0.0 2.0 0.02 0.52 0.02 99 1005.2
20260506010037 54 0.0 2.0 0.02 0.52 0.02 99 1005.1
20260506005052 54 243 0.0 3.0 0.02 0.52 0.02 99 1005.2
20260506004029 54 180 1.0 2.0 0.02 0.52 0.02 99 1005.4